Weather History for KVLL - September, 2013

Change the Weather History Date:

Monday, September 16, 2013

  Actual Average (KDET) Record (KDET)
Temperature  
Mean Temperature 56 °F -  
Max Temperature 63 °F 71 °F 89 °F (1955)
Min Temperature 48 °F 56 °F 41 °F (1959)
Degree Days  
Heating Degree Days 9    
Growing Degree Days 6 (Base 50)    
Moisture  
Dew Point 47 °F    
Average Humidity 70    
Maximum Humidity 92    
Minimum Humidity 43    
Precipitation  
Precipitation 0.00 in - - ()
Sea Level Pressure  
Sea Level Pressure 30.30 in    
Wind  
Wind Speed 5 mph (North)    
Max Wind Speed 13 mph    
Max Gust Speed 21 mph    
Visibility 10 miles    
Events      
Averages and records for this station are not official NWS values.
T = Trace of Precipitation, MM = Missing Value Source: NWS Daily Summary

Daily Weather History Graph

Daily Weather History Graph

Search for Another Location

Airport or City:

Trip Planner

Search our weather history database for the weather conditions in past years. The results will help you decide how hot, cold, wet, or windy it might be!

Date:

Astronomy

Sep. 16, 2013 Rise Set
Actual Time 7:13 AM EDT 7:40 PM EDT
Civil Twilight 6:45 AM EDT 8:08 PM EDT
Nautical Twilight 6:12 AM EDT 8:41 PM EDT
Astronomical Twilight 5:38 AM EDT 9:15 PM EDT
Moon 5:50 PM EDT (9/16) 3:55 AM EDT (9/16)
Length of Visible Light 13h 22m
Length of Day
12h 26m
Waxing Gibbous, 90% of the Moon is Illuminated
Sep 16
Waxing Gibbous
Sep 19
Full
Sep 26
Last Quarter
Oct 4
New
Oct 11
First Quarter

Hourly Weather History & Observations

Time (EDT) Temp. Dew Point Humidity Pressure Visibility Wind Dir Wind Speed Gust Speed Precip Events Conditions
12:15 AM 57.9 °F 54.7 °F 89% 30.15 in 10.0 mi Calm Calm - N/A   Overcast
12:35 AM 56.8 °F 54.5 °F 92% 30.16 in 10.0 mi Calm Calm - N/A   Mostly Cloudy
12:54 AM 56.3 °F 54.0 °F 92% 30.15 in 10.0 mi Calm Calm - N/A   Scattered Clouds
1:15 AM 55.9 °F 53.8 °F 92% 30.16 in 7.0 mi Calm Calm - N/A   Clear
1:34 AM 55.9 °F 53.8 °F 92% 30.16 in 10.0 mi Calm Calm - N/A   Clear
1:54 AM 55.6 °F 53.1 °F 91% 30.17 in 10.0 mi WNW 4.6 mph - N/A   Scattered Clouds
2:15 AM 55.4 °F 52.0 °F 88% 30.17 in 10.0 mi WNW 5.8 mph - N/A   Scattered Clouds
2:35 AM 54.9 °F 51.8 °F 89% 30.17 in 10.0 mi WNW 3.5 mph - N/A   Clear
2:55 AM 54.5 °F 51.6 °F 90% 30.17 in 10.0 mi NW 5.8 mph - N/A   Clear
3:14 AM 54.5 °F 51.8 °F 91% 30.17 in 10.0 mi WNW 5.8 mph - N/A   Clear
3:35 AM 54.5 °F 51.8 °F 91% 30.17 in 10.0 mi WNW 5.8 mph - N/A   Clear
3:54 AM 54.5 °F 52.0 °F 91% 30.17 in 10.0 mi NW 4.6 mph - N/A   Clear
4:14 AM 54.9 °F 52.3 °F 91% 30.18 in 10.0 mi NW 5.8 mph - N/A   Scattered Clouds
4:35 AM 55.9 °F 53.1 °F 90% 30.18 in 10.0 mi NW 6.9 mph - N/A   Mostly Cloudy
4:54 AM 56.7 °F 53.8 °F 90% 30.19 in 10.0 mi NNW 5.8 mph - N/A   Overcast
5:15 AM 56.7 °F 53.6 °F 89% 30.19 in 10.0 mi NW 3.5 mph - N/A   Mostly Cloudy
5:35 AM 56.5 °F 53.6 °F 90% 30.20 in 10.0 mi NNW 5.8 mph - N/A   Mostly Cloudy
5:54 AM 56.3 °F 53.1 °F 89% 30.20 in 10.0 mi Calm Calm - N/A   Mostly Cloudy
6:15 AM 55.9 °F 52.7 °F 89% 30.21 in 10.0 mi NNW 5.8 mph - N/A   Mostly Cloudy
6:35 AM 56.3 °F 52.3 °F 87% 30.22 in 10.0 mi North 8.1 mph - N/A   Mostly Cloudy
6:54 AM 56.3 °F 52.5 °F 87% 30.23 in 10.0 mi North 8.1 mph - N/A   Overcast
7:15 AM 56.3 °F 52.2 °F 86% 30.25 in 10.0 mi North 6.9 mph - N/A   Overcast
7:35 AM 56.3 °F 52.3 °F 87% 30.25 in 10.0 mi North 6.9 mph - N/A   Overcast
7:54 AM 56.3 °F 52.3 °F 87% 30.26 in 10.0 mi North 9.2 mph - N/A   Overcast
8:15 AM 56.5 °F 52.7 °F 87% 30.26 in 10.0 mi North 8.1 mph - N/A   Overcast
8:34 AM 56.7 °F 52.9 °F 87% 30.27 in 10.0 mi North 5.8 mph - N/A   Overcast
8:54 AM 57.4 °F 53.2 °F 86% 30.28 in 10.0 mi NNE 5.8 mph - N/A   Overcast
9:15 AM 56.8 °F 52.3 °F 85% 30.29 in 7.0 mi North 9.2 mph 19.6 mph N/A   Overcast
9:34 AM 56.8 °F 52.0 °F 84% 30.30 in 10.0 mi North 11.5 mph - N/A   Overcast
9:55 AM 57.2 °F 50.7 °F 79% 30.31 in 10.0 mi North 9.2 mph - N/A   Overcast
10:15 AM 57.2 °F 49.6 °F 76% 30.32 in 10.0 mi North 9.2 mph 19.6 mph N/A   Overcast
10:34 AM 58.1 °F 49.6 °F 73% 30.32 in 10.0 mi North 12.7 mph - N/A   Overcast
10:55 AM 57.7 °F 49.5 °F 74% 30.33 in 10.0 mi North 10.4 mph - N/A   Overcast
11:14 AM 59.0 °F 48.4 °F 68% 30.33 in 10.0 mi NE 12.7 mph 18.4 mph N/A   Overcast
11:35 AM 59.5 °F 48.2 °F 66% 30.34 in 10.0 mi NNE 10.4 mph - N/A   Overcast
11:55 AM 59.4 °F 47.5 °F 65% 30.34 in 10.0 mi North 10.4 mph - N/A   Overcast
12:14 PM 59.5 °F 47.3 °F 64% 30.34 in 10.0 mi North 10.4 mph - N/A   Overcast
12:35 PM 59.9 °F 46.9 °F 62% 30.35 in 10.0 mi North 9.2 mph - N/A   Overcast
12:55 PM 60.3 °F 46.0 °F 59% 30.35 in 10.0 mi North 9.2 mph - N/A   Overcast
1:14 PM 62.4 °F 45.5 °F 54% 30.35 in 10.0 mi North 10.4 mph - N/A   Mostly Cloudy
1:35 PM 62.2 °F 44.4 °F 52% 30.35 in 10.0 mi North 9.2 mph 16.1 mph N/A   Mostly Cloudy
1:54 PM 62.4 °F 43.9 °F 51% 30.36 in 10.0 mi North 12.7 mph 19.6 mph N/A   Mostly Cloudy
2:15 PM 63.0 °F 43.9 °F 50% 30.36 in 10.0 mi ENE 11.5 mph 18.4 mph N/A   Mostly Cloudy
2:35 PM 63.0 °F 43.7 °F 49% 30.35 in 10.0 mi NE 10.4 mph 20.7 mph N/A   Scattered Clouds
2:54 PM 62.2 °F 42.6 °F 49% 30.35 in 10.0 mi North 8.1 mph - N/A   Scattered Clouds
3:15 PM 62.8 °F 42.8 °F 48% 30.35 in 10.0 mi North 10.4 mph - N/A   Scattered Clouds
3:35 PM 62.6 °F 40.6 °F 45% 30.35 in 10.0 mi NE 11.5 mph - N/A   Scattered Clouds
3:54 PM 62.2 °F 40.6 °F 45% 30.35 in 10.0 mi North 8.1 mph 16.1 mph N/A   Scattered Clouds
4:15 PM 63.1 °F 40.5 °F 43% 30.35 in 10.0 mi NE 5.8 mph - N/A   Scattered Clouds
4:35 PM 63.3 °F 41.2 °F 44% 30.35 in 10.0 mi North 9.2 mph - N/A   Scattered Clouds
4:54 PM 63.3 °F 40.6 °F 43% 30.35 in 10.0 mi NNE 9.2 mph - N/A   Scattered Clouds
5:15 PM 61.9 °F 41.0 °F 46% 30.35 in 10.0 mi North 5.8 mph 10.4 mph N/A   Scattered Clouds
5:35 PM 61.7 °F 40.8 °F 46% 30.35 in 10.0 mi North 5.8 mph - N/A   Clear
5:54 PM 62.8 °F 40.5 °F 44% 30.35 in 10.0 mi North 5.8 mph - N/A   Clear
6:15 PM 61.9 °F 40.6 °F 46% 30.36 in 10.0 mi North 8.1 mph - N/A   Clear
6:34 PM 61.7 °F 41.4 °F 47% 30.36 in 10.0 mi NNE 8.1 mph - N/A   Scattered Clouds
6:54 PM 60.8 °F 40.5 °F 47% 30.36 in 10.0 mi NNE 8.1 mph - N/A   Scattered Clouds
7:15 PM 59.0 °F 40.5 °F 50% 30.36 in 10.0 mi NNE 11.5 mph 16.1 mph N/A   Clear
7:34 PM 57.7 °F 39.7 °F 51% 30.37 in 10.0 mi NE 9.2 mph - N/A   Clear
7:55 PM 56.8 °F 40.3 °F 54% 30.37 in 10.0 mi NE 8.1 mph - N/A   Clear
8:15 PM 56.3 °F 40.3 °F 55% 30.37 in 10.0 mi NE 6.9 mph - N/A   Clear
8:34 PM 55.6 °F 40.6 °F 57% 30.38 in 10.0 mi ENE 9.2 mph - N/A   Clear
8:55 PM 54.5 °F 40.3 °F 59% 30.39 in 10.0 mi NE 9.2 mph - N/A   Clear
9:15 PM 53.8 °F 40.3 °F 60% 30.40 in 10.0 mi NE 8.1 mph - N/A   Clear
9:34 PM 53.1 °F 39.9 °F 61% 30.40 in 10.0 mi NE 11.5 mph - N/A   Clear
9:55 PM 51.8 °F 40.5 °F 65% 30.41 in 10.0 mi NNE 3.5 mph - N/A   Clear
10:14 PM 51.3 °F 40.3 °F 66% 30.41 in 10.0 mi NNE 6.9 mph - N/A   Clear
10:35 PM 50.7 °F 40.1 °F 67% 30.41 in 10.0 mi NNE 5.8 mph - N/A   Clear
10:55 PM 49.6 °F 39.6 °F 68% 30.41 in 10.0 mi NNE 8.1 mph - N/A   Clear
11:14 PM 49.3 °F 39.9 °F 70% 30.41 in 10.0 mi NNE 3.5 mph - N/A   Clear
11:35 PM 49.1 °F 40.1 °F 71% 30.41 in 10.0 mi North 4.6 mph - N/A   Clear
11:55 PM 48.4 °F 40.3 °F 74% 30.41 in 10.0 mi North 3.5 mph - N/A   Clear